Year,Month,Day,Hour,Minute,Value (Times are PST for temperature in C)
2016,11,12,09,54,11.90
2016,11,12,09,55,11.90
2016,11,12,09,56,12.00
2016,11,12,09,57,12.00
2016,11,12,09,58,12.00
2016,11,12,09,59,12.00
2016,11,12,10,00,12.00
2016,11,12,10,01,12.00
2016,11,12,10,02,12.00
2016,11,12,10,03,12.00
2016,11,12,10,04,12.00
2016,11,12,10,05,12.00
2016,11,12,10,06,12.10
2016,11,12,10,07,12.10
2016,11,12,10,08,12.10
2016,11,12,10,09,12.10
2016,11,12,10,10,12.10
2016,11,12,10,11,12.10
2016,11,12,10,12,12.10
2016,11,12,10,13,12.20
2016,11,12,10,14,12.20
2016,11,12,10,15,12.20
2016,11,12,10,16,12.20
2016,11,12,10,17,12.20
2016,11,12,10,18,12.30
2016,11,12,10,19,12.30
2016,11,12,10,20,12.30
2016,11,12,10,21,12.30
2016,11,12,10,22,12.40
2016,11,12,10,23,12.40
2016,11,12,10,24,12.40
2016,11,12,10,25,12.40
2016,11,12,10,26,12.40
2016,11,12,10,27,12.50
2016,11,12,10,28,12.50
2016,11,12,10,29,12.50
2016,11,12,10,30,12.50
2016,11,12,10,31,12.50
2016,11,12,10,32,12.50
2016,11,12,10,33,12.40
2016,11,12,10,34,12.40
2016,11,12,10,35,12.40
2016,11,12,10,36,12.40
2016,11,12,10,37,12.40
2016,11,12,10,38,12.40
2016,11,12,10,39,12.40
2016,11,12,10,40,12.40
2016,11,12,10,41,12.40
2016,11,12,10,42,12.40
2016,11,12,10,43,12.40
2016,11,12,10,44,12.40
2016,11,12,10,45,12.40
2016,11,12,10,46,12.40
2016,11,12,10,47,12.40
2016,11,12,10,48,12.40
2016,11,12,10,49,12.40
2016,11,12,10,50,12.40
2016,11,12,10,51,12.40
2016,11,12,10,52,12.40
2016,11,12,10,53,12.40
2016,11,12,10,54,12.40
2016,11,12,10,55,12.40
2016,11,12,10,56,12.40
2016,11,12,10,57,12.40
2016,11,12,10,58,12.40
2016,11,12,10,59,12.40
2016,11,12,11,00,12.50
2016,11,12,11,01,12.50
2016,11,12,11,02,12.50
2016,11,12,11,03,12.50
2016,11,12,11,04,12.60
2016,11,12,11,05,12.60
2016,11,12,11,06,12.60
2016,11,12,11,07,12.70
2016,11,12,11,08,12.70
2016,11,12,11,09,12.80
2016,11,12,11,10,12.80
2016,11,12,11,11,12.80
2016,11,12,11,12,12.80
2016,11,12,11,13,12.90
2016,11,12,11,14,13.00
2016,11,12,11,15,13.10
2016,11,12,11,16,13.10
2016,11,12,11,17,13.20
2016,11,12,11,18,13.30
2016,11,12,11,19,13.30
2016,11,12,11,20,13.30
2016,11,12,11,21,13.30
2016,11,12,11,22,13.40
2016,11,12,11,23,13.40
2016,11,12,11,24,13.50
2016,11,12,11,25,13.50
2016,11,12,11,26,13.50
2016,11,12,11,27,13.50
2016,11,12,11,28,13.50
2016,11,12,11,29,13.50
2016,11,12,11,30,13.50
2016,11,12,11,31,13.50
2016,11,12,11,32,13.40
2016,11,12,11,33,13.40
2016,11,12,11,34,13.40
2016,11,12,11,35,13.40
2016,11,12,11,36,13.30
2016,11,12,11,37,13.30
2016,11,12,11,38,13.30
2016,11,12,11,39,13.30
2016,11,12,11,40,13.30
2016,11,12,11,41,13.30
2016,11,12,11,42,13.30
2016,11,12,11,43,13.30
2016,11,12,11,44,13.30
2016,11,12,11,45,13.30
2016,11,12,11,46,13.30
2016,11,12,11,47,13.30
2016,11,12,11,48,13.30
2016,11,12,11,49,13.40
2016,11,12,11,50,13.40
2016,11,12,11,51,13.40
2016,11,12,11,52,13.40
2016,11,12,11,53,13.40
2016,11,12,11,54,13.30
2016,11,12,11,55,13.30
2016,11,12,11,56,13.30
2016,11,12,11,57,13.30
2016,11,12,11,58,13.30
2016,11,12,11,59,13.30
2016,11,12,12,00,13.30
2016,11,12,12,01,13.30
2016,11,12,12,02,13.30
2016,11,12,12,03,13.20
2016,11,12,12,04,13.20
2016,11,12,12,05,13.20
2016,11,12,12,06,13.20
2016,11,12,12,07,13.20
2016,11,12,12,08,13.20
2016,11,12,12,09,13.10
2016,11,12,12,10,13.10
2016,11,12,12,11,13.10
2016,11,12,12,12,13.10
2016,11,12,12,13,13.10
2016,11,12,12,14,13.00
2016,11,12,12,15,13.00
2016,11,12,12,16,13.00
2016,11,12,12,17,12.90
2016,11,12,12,18,12.90
2016,11,12,12,19,12.90
2016,11,12,12,20,12.90
2016,11,12,12,21,12.90
2016,11,12,12,22,12.90
2016,11,12,12,23,12.90
2016,11,12,12,24,12.90
2016,11,12,12,25,12.80
2016,11,12,12,26,12.80
2016,11,12,12,27,12.80
2016,11,12,12,28,12.80
2016,11,12,12,29,12.70
2016,11,12,12,30,12.70
2016,11,12,12,31,12.70
2016,11,12,12,32,12.60
2016,11,12,12,33,12.60
2016,11,12,12,34,12.60
2016,11,12,12,35,12.60
2016,11,12,12,36,12.60
2016,11,12,12,37,12.60
2016,11,12,12,38,12.70
2016,11,12,12,39,12.80
2016,11,12,12,40,12.80
2016,11,12,12,41,12.80
2016,11,12,12,42,12.80
2016,11,12,12,43,12.80
2016,11,12,12,44,12.90
2016,11,12,12,45,12.90
2016,11,12,12,46,12.90
2016,11,12,12,47,12.90
2016,11,12,12,48,13.00
2016,11,12,12,49,13.00
2016,11,12,12,50,13.00
2016,11,12,12,51,13.00
2016,11,12,12,52,13.00
2016,11,12,12,53,13.00
2016,11,12,12,54,13.00
2016,11,12,12,55,13.00
2016,11,12,12,56,13.00
2016,11,12,12,57,13.00
2016,11,12,12,58,13.10
2016,11,12,12,59,13.10
2016,11,12,13,00,13.10
2016,11,12,13,01,13.10
2016,11,12,13,02,13.20
2016,11,12,13,03,13.10
2016,11,12,13,04,13.10
2016,11,12,13,05,13.20
2016,11,12,13,06,13.20
2016,11,12,13,07,13.20
2016,11,12,13,08,13.20
2016,11,12,13,09,13.20
2016,11,12,13,10,13.20
2016,11,12,13,11,13.20
2016,11,12,13,12,13.20
2016,11,12,13,13,13.20
2016,11,12,13,14,13.20
2016,11,12,13,15,13.20
2016,11,12,13,16,13.20
2016,11,12,13,17,13.20
2016,11,12,13,18,13.20
2016,11,12,13,19,13.20
2016,11,12,13,20,13.20
2016,11,12,13,21,13.20
2016,11,12,13,22,13.20
2016,11,12,13,23,13.20
2016,11,12,13,24,13.30
2016,11,12,13,25,13.30
2016,11,12,13,26,13.30
2016,11,12,13,27,13.30
2016,11,12,13,28,13.30
2016,11,12,13,29,13.30
2016,11,12,13,30,13.30
2016,11,12,13,31,13.30
2016,11,12,13,32,13.30
2016,11,12,13,33,13.30
2016,11,12,13,34,13.30
2016,11,12,13,35,13.30
2016,11,12,13,36,13.30
2016,11,12,13,37,13.30
2016,11,12,13,38,13.30
2016,11,12,13,39,13.30
2016,11,12,13,40,13.30
2016,11,12,13,41,13.30
2016,11,12,13,42,13.30
2016,11,12,13,43,13.30
2016,11,12,13,44,13.30
2016,11,12,13,45,13.30
2016,11,12,13,46,13.30
2016,11,12,13,47,13.30
2016,11,12,13,48,13.30
2016,11,12,13,49,13.30
2016,11,12,13,50,13.30
2016,11,12,13,51,13.30
2016,11,12,13,52,13.30
2016,11,12,13,53,13.30
2016,11,12,13,54,13.30
2016,11,12,13,55,13.30
2016,11,12,13,56,13.30
2016,11,12,13,57,13.30
2016,11,12,13,58,13.30
2016,11,12,13,59,13.30
2016,11,12,14,00,13.30
2016,11,12,14,01,13.20
2016,11,12,14,02,13.20
2016,11,12,14,03,13.20
2016,11,12,14,04,13.10
2016,11,12,14,05,13.10
2016,11,12,14,06,13.10
2016,11,12,14,07,13.10
2016,11,12,14,08,13.10
2016,11,12,14,09,13.10
2016,11,12,14,10,13.10
2016,11,12,14,11,13.10
2016,11,12,14,12,13.10
2016,11,12,14,13,13.10
2016,11,12,14,14,13.10
2016,11,12,14,15,13.20
2016,11,12,14,16,13.20
2016,11,12,14,17,13.30
2016,11,12,14,18,13.30
2016,11,12,14,19,13.30
2016,11,12,14,20,13.30
2016,11,12,14,21,13.30
2016,11,12,14,22,13.30
2016,11,12,14,23,13.30
2016,11,12,14,24,13.40
2016,11,12,14,25,13.40
2016,11,12,14,26,13.40
2016,11,12,14,27,13.40
2016,11,12,14,28,13.40
2016,11,12,14,29,13.40
2016,11,12,14,30,13.40
2016,11,12,14,31,13.40
2016,11,12,14,32,13.50
2016,11,12,14,33,13.50
2016,11,12,14,34,13.50
2016,11,12,14,35,13.60
2016,11,12,14,36,13.60
2016,11,12,14,37,13.70
2016,11,12,14,38,13.70
2016,11,12,14,39,13.70
2016,11,12,14,40,13.70
2016,11,12,14,41,13.70
2016,11,12,14,42,13.70
2016,11,12,14,43,13.80
2016,11,12,14,44,13.80
2016,11,12,14,45,13.80
2016,11,12,14,46,13.80
2016,11,12,14,47,13.80
2016,11,12,14,48,13.80
2016,11,12,14,49,13.80
2016,11,12,14,50,13.80
2016,11,12,14,51,13.80
2016,11,12,14,52,13.80
2016,11,12,14,53,13.80
2016,11,12,14,54,13.80
2016,11,12,14,55,13.80
2016,11,12,14,56,13.80
2016,11,12,14,57,13.70
2016,11,12,14,58,13.70
2016,11,12,14,59,13.70
2016,11,12,15,00,13.60
2016,11,12,15,01,13.60
2016,11,12,15,02,13.50
2016,11,12,15,03,13.50
2016,11,12,15,04,13.40
2016,11,12,15,05,13.40
2016,11,12,15,06,13.30
2016,11,12,15,07,13.30
2016,11,12,15,08,13.30
2016,11,12,15,09,13.30
2016,11,12,15,10,13.30
2016,11,12,15,11,13.30
2016,11,12,15,12,13.30
2016,11,12,15,13,13.30
2016,11,12,15,14,13.30
2016,11,12,15,15,13.30
2016,11,12,15,16,13.30
2016,11,12,15,17,13.30
2016,11,12,15,18,13.20
2016,11,12,15,19,13.30
2016,11,12,15,20,13.30
2016,11,12,15,21,13.20
2016,11,12,15,22,13.20
2016,11,12,15,23,13.20
2016,11,12,15,24,13.20
2016,11,12,15,25,13.20
2016,11,12,15,26,13.20
2016,11,12,15,27,13.20
2016,11,12,15,28,13.20
2016,11,12,15,29,13.10
2016,11,12,15,30,13.10
2016,11,12,15,31,13.10
2016,11,12,15,32,13.10
2016,11,12,15,33,13.10
2016,11,12,15,34,13.10
2016,11,12,15,35,13.10
2016,11,12,15,36,13.10
2016,11,12,15,37,13.20
2016,11,12,15,38,13.20
2016,11,12,15,39,13.20
2016,11,12,15,40,13.20
2016,11,12,15,41,13.20
2016,11,12,15,42,13.20
2016,11,12,15,43,13.20
2016,11,12,15,44,13.10
2016,11,12,15,45,13.20
2016,11,12,15,46,13.20
2016,11,12,15,47,13.20
2016,11,12,15,48,13.20
2016,11,12,15,49,13.20
2016,11,12,15,50,13.20
2016,11,12,15,51,13.20
2016,11,12,15,52,13.20
2016,11,12,15,53,13.10
2016,11,12,15,54,13.10
2016,11,12,15,55,13.00
2016,11,12,15,56,13.00
2016,11,12,15,57,13.00
2016,11,12,15,58,13.00
2016,11,12,15,59,12.90
2016,11,12,16,00,12.90
2016,11,12,16,01,12.90
2016,11,12,16,02,12.80
2016,11,12,16,03,12.80
2016,11,12,16,04,12.80
2016,11,12,16,05,12.70
2016,11,12,16,06,12.70
2016,11,12,16,07,12.60
2016,11,12,16,08,12.60
2016,11,12,16,09,12.60
2016,11,12,16,10,12.50
2016,11,12,16,11,12.50
2016,11,12,16,12,12.50
2016,11,12,16,13,12.50
2016,11,12,16,14,12.50
2016,11,12,16,15,12.50
2016,11,12,16,16,12.40
2016,11,12,16,17,12.40
2016,11,12,16,18,12.40
2016,11,12,16,19,12.40
2016,11,12,16,20,12.40
2016,11,12,16,21,12.40
2016,11,12,16,22,12.40
2016,11,12,16,23,12.40
2016,11,12,16,24,12.40
2016,11,12,16,25,12.40
2016,11,12,16,26,12.40
2016,11,12,16,27,12.40
2016,11,12,16,28,12.40
2016,11,12,16,29,12.40
2016,11,12,16,30,12.40
2016,11,12,16,31,12.40
2016,11,12,16,32,12.40
2016,11,12,16,33,12.30
2016,11,12,16,34,12.30
2016,11,12,16,35,12.30
2016,11,12,16,36,12.30
2016,11,12,16,37,12.30
2016,11,12,16,38,12.30
2016,11,12,16,39,12.30
2016,11,12,16,40,12.30
2016,11,12,16,41,12.30
2016,11,12,16,42,12.30
